Content
SEND FEEDBACK

Daily
Averages
Monthly
Summary
United Kingdom

WOODBRIDGE, ENGLAND


Home > Europe > United Kingdom > England
Elevation: 95 feet     Latitude: 52 05N     Longitude: 001 24E

WEATHER
 
SELECT A DAY
Number of Records: 68,401;   Date Range: 8/10/96 - 10/23/14
 
SHARE

PRINT THIS DATA

[ ← Previous Day ]
WEATHER ALMANAC - SEPTEMBER 25, 2013
[ Next Day → ]
[ °C ]   °F
Weather ElementAverageHighLow
Temperature58.9 °F68 °F (1:50 pm)53 °F (3:50 am)
Dewpoint54.7 °F57.2 °F (5:50 pm)51.8 °F (2:50 am)
Humidity86 %100 % (4:50 am)64 % (12:50 pm)
Barometer29.88 in29.95 in (12:50 am)29.83 in (1:50 pm)
Wind Speed4.1 mph8.1 mph (8:50 pm)
Weather ElementAverage
Visibility3.2 mi
Wind DirectionSSW (214.2 °)

Weather ElementTotal
Precipitation---
Heating Degree Days4.5 (Base 65)
Growing Degree Days10.5 (Base 50)
Averaged from 36 records on September 25, 2013
WEATHER CONDITIONS BREAKOUT
WIND DIRECTION BREAKOUT
WEATHER BY HOUR - SEPTEMBER 25, 2013
[ °C ]   °F
Local TimeTemperatureDewpointHumidityBarometerVisibilityWind DirectionWind SpeedGust SpeedPrecipitationEventsConditions
12:50 AM57.2 °F53.6 °F88 %29.95 in3.1 miESE (120°)4.6 mphHaze
1:50 AM55.4 °F53.6 °F94 %29.92 in3.1 miEast (100°)2.3 mphHaze
2:50 AM53.6 °F51.8 °F94 %29.92 inSouth (170°)1.2 mphMostly Cloudy
3:50 AM53.0 °F52.0 °F97 %29.92 in2.0 miNNW (340°)1.2 mphMist
3:50 AM53.6 °F51.8 °F94 %29.89 in1.6 miNNW (340°)1.2 mphMostly Cloudy
4:50 AM53.6 °F53.6 °F100 %29.89 in1.5 miNorth (10°)2.3 mphMostly Cloudy
5:50 AM53.6 °F53.6 °F100 %29.89 in1.9 miNE (50°)3.5 mphFogMostly Cloudy
6:50 AM54.0 °F53.0 °F95 %29.90 in2.0 miNNE (20°)1.2 mphFogPatches of Fog
6:50 AM53.6 °F53.6 °F100 %29.89 in1.9 miNNE (20°)1.2 mphFogFog
7:50 AM53.6 °F53.6 °F100 %29.89 in1.9 miNNE (20°)2.3 mphMostly Cloudy
8:50 AM57.2 °F55.4 °F94 %29.86 in1.9 miNE (40°)5.8 mphHaze
9:25 AM59.0 °F55.4 °F88 %29.86 in2.5 miENE (70°)3.5 mphHaze
9:50 AM61.0 °F54.0 °F73 %29.88 in5.0 miSSE (160°)2.3 mphHaze
9:50 AM60.8 °F55.4 °F82 %29.86 in5.0 miSSE (160°)2.3 mphHaze
10:50 AM62.6 °F53.6 °F72 %29.86 in5.6 miSE (140°)2.3 mphHaze
11:50 AM62.6 °F55.4 °F77 %29.86 inSSE (150°)3.5 mphClear
12:50 PM64.0 °F55.0 °F64 %29.87 in6.0 miWest (270°)3.5 mphScattered Clouds
12:50 PM64.4 °F55.4 °F73 %29.86 inWest (270°)3.5 mphClear
1:50 PM68.0 °F55.4 °F64 %29.83 inSW (230°)2.3 mphClear
2:50 PM66.2 °F55.4 °F68 %29.83 in5.6 miWNW (290°)3.5 mphHaze
3:50 PM65.0 °F56.0 °F65 %29.85 in6.0 miNW (320°)5.8 mphHaze
3:50 PM66.2 °F55.4 °F68 %29.83 in5.6 miNW (320°)5.8 mphHaze
4:50 PM64.4 °F55.4 °F73 %29.83 in5.0 miNW (320°)4.6 mphHaze
5:50 PM62.6 °F57.2 °F82 %29.83 in5.0 miNorth (350°)5.8 mphHaze
6:18 PM60.8 °F55.4 °F82 %29.83 in4.3 miNorth (350°)4.6 mphHaze
6:50 PM60.0 °F56.0 °F81 %29.86 in4.0 miNW (320°)2.3 mphHaze
6:50 PM60.8 °F55.4 °F82 %29.86 in3.7 miNW (320°)2.3 mphHaze
7:50 PM59.0 °F55.4 °F88 %29.86 in3.1 miNW (310°)4.6 mphHaze
8:50 PM59.0 °F55.4 °F88 %29.89 in3.1 miNorth (350°)8.1 mphHaze
9:22 PM59.0 °F57.2 °F94 %29.89 in2.8 miNorth (350°)8.1 mphHaze
9:50 PM58.0 °F56.0 °F89 %29.91 in2.0 miNorth6.9 mphHaze
9:50 PM57.2 °F55.4 °F94 %29.89 inNorth (360°)6.9 mphHaze
10:16 PM55.4 °F55.4 °F100 %29.89 in1.9 miNorth (10°)6.9 mphMostly Cloudy
10:50 PM55.4 °F53.6 °F94 %29.89 in1.2 miNorth (360°)5.8 mphMostly Cloudy
11:34 PM55.4 °F55.4 °F100 %29.89 in1.1 miNorth (350°)8.1 mphScattered Clouds
11:50 PM55.4 °F55.4 °F100 %29.92 in1.1 miNorth (350°)6.9 mphMostly Cloudy
Hourly data recorded from EGUW, located miles away from Woodbridge, England







STORIES FROM OUR PARTNERS